Location: Black Swamp Observatory
(41.3920°N, 84.1250°W)
Time: 13:30:50
(UTC-04:00)

Vanguard 2 - Pass Details

Date: 25 January 2022
Orbit: 552 x 2935 km, 32.9° (Epoch: 24 May)

Event Time Altitude Azimuth Distance (km) Brightness Sun altitude
Rises 20:08:28 0° 224° (SW) 3,836 11.8 -27.0°
Maximum altitude 20:18:17 37° 151° (SSE) 2,374 9.7 -28.9°
Enters shadow 20:19:29 36° 138° (SE) 2,505 9.7 -29.1°
